Huvudsida
METAR-TAF:

METAR-TAF

Flygplatser :

Røsts flygplats

Røst, Norge

latitud: 67-31N, longitud: 012-06E, höjd: 4 m

Aktuellt väderrapport

Denna rapport gjordes för 8 timmar och 5 minuter sedan, klockan 06:50 UTC
Vind 14 kt från väst
Temperatur 11°C
Fuktighet 71%
Tryck 1004 hPa
Sikt 10 km eller mer
Få moln på en höjd av 2400 ft
Spridda moln på en höjd av 3400 ft

METAR: ENRS 200650Z 28014KT 9999 FEW024 SCT034 11/06 Q1004

Tid: 16:55 (14:55 UTC)


TAF: saknas

Aktuella väderrapporter och prognoser från 4000 flygplatser (METAR- och TAF-rapporter).

De tillgängliga stationerna syns som gula och röda prickar på kartan.

För musen över prickarna för att se namnen på stationerna.

Klicka sedan för att få väderrapporter och prognoser.

För att ändra kartan: Klicka på de gröna knapparna med ett svart kors på för att zooma in; den gröna knappen med ett streck på för att zooma ut; eller på de gröna pilarna för angränsande kartor.


METAR-TAF: